[[{"header":{"parameterUnit":"m.s-1","parameterCategory":1,"la1":30.2991,"la2":30.254,"lo1":-89.0895,"lo2":-89.0444,"dy":0.0017,"dx":0.0017,"nx":28,"ny":28,"refTime":"2024-04-02T09:00:00:Z","depth":0,"parameterNumber":2,"parameterNumberName":"U-component_of_WINDS"},"data":[0,0,0,0,0,0,0,0,0,0,0,0,0,0,0,0,0,0,0,0,0,0,0,0,0,0,0,0,0,0,0,0,0,0,0,0,0,0,0,0,0,0,0,0,0,0,0,0,0,0,0,0,0,0,0,0,0,0,-2.9286,-2.9286,0,-2.9284,-2.9284,-2.9284,-2.9243,-2.9242,-2.9241,-2.924,-2.9238,-2.9239,-2.924,0,0,0,0,0,0,0,0,0,0,0,0,0,-2.9255,-2.9256,-2.9286,-2.9286,-2.9286,-2.9284,-2.9284,-2.9284,-2.9243,-2.9242,-2.9241,-2.9239,-2.9238,-2.9239,-2.924,0,0,0,0,0,0,0,0,0,0,0,0,0,-2.9262,-2.9256,-2.9286,-2.9266,-2.9264,-2.9284,-2.9284,-2.9284,-2.9243,-2.9242,-2.924,-2.9239,-2.9237,-2.9239,-2.924,-2.9281,0,0,-2.9245,-2.9245,0,0,0,0,0,0,0,0,-2.9262,-2.9264,-2.9269,-2.9267,-2.9265,-2.9262,-2.9273,-2.9283,-2.9244,-2.9251,-2.924,-2.9238,-2.9248,-2.9248,-2.9251,-2.9281,-2.9281,-2.9245,-2.9246,-2.9246,-2.9247,0,0,0,0,0,0,0,-2.9261,-2.9263,-2.9286,-2.9269,-2.9267,-2.9256,-2.9256,-2.9274,-2.9258,-2.925,-2.9247,-2.9248,-2.9246,-2.925,-2.9251,-2.9281,-2.9245,-2.9246,-2.9247,-2.9247,-2.9342,-2.9344,0,0,0,0,0,0,-2.9264,-2.9263,-2.9286,-2.9286,-2.926,-2.9258,-2.9257,-2.9265,-2.9258,-2.9255,-2.9249,-2.9246,-2.9248,-2.9249,-2.9251,-2.9296,-2.9246,-2.9247,-2.9248,-2.934,-2.9342,-2.9344,0,0,0,0,0,0,-2.9263,-2.9266,-2.9286,-2.9274,-2.9275,-2.926,-2.9269,-2.9266,-2.9269,-2.9257,-2.9254,-2.9256,-2.9247,-2.9249,-2.9273,-2.9295,-2.9248,-2.9249,-2.9338,-2.9341,-2.9343,-2.9388,0,0,0,0,0,0,-2.9263,-2.9266,-2.9281,-2.9274,-2.9276,-2.9308,-2.927,-2.9267,-2.9272,-2.9267,-2.9262,-2.926,-2.9246,-2.9271,-2.9275,-2.9296,-2.925,-2.9336,-2.934,-2.9343,-2.9385,-2.9392,-2.9398,0,0,0,0,0,-2.9262,-2.9295,-2.9282,-2.9285,-2.9295,-2.931,-2.9311,-2.9294,-2.9274,-2.9288,-2.9281,-2.926,-2.9293,-2.9274,-2.9278,-2.93,-2.9335,-2.9339,-2.9342,-2.9382,-2.939,-2.9398,0,0,0,0,0,0,-2.9305,-2.9293,-2.928,-2.9311,-2.9312,-2.9303,-2.9321,-2.9304,-2.931,-2.9306,-2.9285,-2.9284,-2.9312,-2.9309,-2.9288,-2.9338,-2.931,-2.9315,-2.9339,-2.9347,-2.9354,-2.9353,-2.9252,0,0,0,0,0,-2.9318,-2.9332,-2.9321,-2.935,-2.9351,-2.9336,-2.9342,-2.9329,-2.9329,-2.9329,-2.9323,-2.9323,-2.9333,-2.9341,-2.935,-2.9385,-2.9382,-2.9402,-2.9409,-2.9414,-2.9418,-2.9435,-2.9443,-2.9357,-2.9356,-2.9356,0,0,-2.9346,-2.9341,-2.9351,-2.9358,-2.9357,-2.9371,-2.9336,-2.9353,-2.9363,-2.9331,-2.9353,-2.9349,-2.9349,-2.9378,-2.9391,-2.9377,-2.9442,-2.9419,-2.9424,-2.9424,-2.9439,-2.9448,-2.9455,-2.9359,-2.9359,-2.9358,0,0,-2.9402,-2.9401,-2.9424,-2.9423,-2.9422,-2.9412,-2.9418,-2.9411,-2.9407,-2.9429,-2.9406,-2.9418,-2.9436,-2.9436,-2.9438,-2.9495,-2.9476,-2.9499,-2.9533,-2.955,-2.9557,-2.9563,-2.9581,-2.9588,-2.9503,-2.9503,-2.9503,0,-2.9436,-2.9456,-2.9438,-2.9455,-2.9459,-2.9431,-2.9454,-2.9455,-2.9457,-2.946,-2.9444,-2.9466,-2.9463,-2.9492,-2.9506,-2.9509,-2.9514,-2.9498,-2.9557,-2.9563,-2.9568,-2.9586,-2.9593,-2.9506,-2.9506,-2.9505,-2.9505,0,-2.9497,-2.9511,-2.953,-2.9532,-2.9538,-2.9558,-2.9543,-2.9551,-2.9538,-2.953,-2.9552,-2.9549,-2.9556,-2.9562,-2.955,-2.9589,-2.9579,-2.9561,-2.9532,-2.9579,-2.9595,-2.9602,-2.951,-2.9509,-2.9508,-2.9507,0,0,-2.9579,-2.9571,-2.9578,-2.9578,-2.9574,-2.9585,-2.9604,-2.961,-2.9617,-2.962,-2.9634,-2.9651,-2.9633,-2.9636,-2.9624,-2.9639,-2.9682,-2.9618,-2.9618,-2.9628,-2.9723,-2.9735,-2.9743,-2.967,-2.9671,-2.9672,-2.9722,0,-2.9632,-2.9663,-2.9647,-2.968,-2.9692,-2.9666,-2.9683,-2.9683,-2.9676,-2.9685,-2.9678,-2.9689,-2.9666,-2.9667,-2.9681,-2.9674,-2.97,-2.967,-2.9682,-2.9683,-2.968,-2.9751,-2.9764,-2.9811,-2.9728,-2.9729,-2.973,0,-2.9697,-2.9702,-2.9735,-2.9729,-2.9733,-2.9748,-2.9752,-2.9762,-2.9761,-2.9755,-2.9758,-2.9742,-2.976,-2.9733,-2.9757,-2.9737,-2.9741,-2.9738,-2.974,-2.9738,-2.9707,-2.9749,-2.9826,-2.9832,-2.974,-2.9739,-2.9738,0,-2.9751,-2.9766,-2.9787,-2.9788,-2.9782,-2.9793,-2.9791,-2.9788,-2.9793,-2.9797,-2.98,-2.9807,-2.981,-2.9815,-2.9801,-2.9783,-2.9826,-2.9798,-2.9821,-2.9821,-2.9829,-2.9828,-2.9905,-2.9836,-2.9836,-2.9836,-2.9835,0,-2.981,-2.9831,-2.9811,-2.9824,-2.9847,-2.983,-2.9853,-2.9848,-2.9846,-2.9857,-2.9837,-2.9848,-2.983,-2.984,-2.9829,-2.9849,-2.9852,-2.9847,-2.9843,-2.9847,-2.9847,-2.9848,-2.9843,-2.9837,-2.9837,-2.9837,-2.9836,0,-2.9873,-2.9861,-2.9882,-2.9874,-2.9873,-2.989,-2.9883,-2.9894,-2.9887,-2.9901,-2.9904,-2.9891,-2.9902,-2.9889,-2.9898,-2.9891,-2.9918,-2.9911,-2.9918,-2.9915,-2.9937,-2.9934,-3.0015,-3.0023,-2.9951,-2.9952,-2.9953,0,-2.991,-2.9926,-2.9919,-2.9925,-2.9924,-2.9934,-2.9939,-2.9922,-2.9928,-2.9928,-2.9939,-2.9948,-2.9953,-2.9971,-2.9962,-2.9969,-2.9961,-2.9989,-2.9961,-2.9964,-2.9958,-2.9957,-2.9957,-2.9993,-2.9994,-2.9995,-2.9995,0,-2.9977,-2.997,-2.9977,-2.9982,-2.9988,-2.9991,-2.9993,-2.9999,-2.9982,-2.9989,-2.9999,-3.0003,-3.0012,-3.002,-3.0025,-3.0023,-3.0006,-3.0004,-3.0009,-3.0012,-3.0015,-3.0011,-2.993,-3.0002,-3.0001,-3.0001,-3.0,-3.0,-3.0027,-3.0039,-3.0035,-3.0044,-3.0043,-3.0045,-3.0055,-3.0048,-3.0056,-3.0062,-3.0052,-3.0064,-3.0062,-3.0067,-3.0067,-3.0076,-3.0063,-3.0071,-3.0073,-3.0075,-3.0077,-3.0015,-3.0077,-3.0077,-3.0076,-3.0076,-3.0076,0,-3.009,-3.0087,-3.0095,-3.0097,-3.0104,-3.0088,-3.0089,-3.0095,-3.0106,-3.0106,-3.0112,-3.0122,-3.013,-3.0123,-3.0129,-3.0138,-3.013,-3.014,-3.0138,-3.0137,-3.0088,-3.0082,-3.0146,-3.0146,-3.0146,-3.0146,-3.0146,-3.0146,-3.0124,-3.0143,-3.0135,-3.0154,-3.015,-3.0161,-3.0163,-3.0165,-3.0164,-3.0177,-3.0183,-3.0178,-3.0175,-3.0181,-3.0187,-3.0185,-3.0187,-3.0199,-3.0194,-3.0148,-3.0141,-3.0134,-3.0128,-3.02,-3.02,-3.0241,-3.0242,-3.0242]},{"header":{"parameterUnit":"m.s-1","parameterCategory":1,"la1":30.2991,"la2":30.254,"lo1":-89.0895,"lo2":-89.0444,"dy":0.0017,"dx":0.0017,"nx":28,"ny":28,"refTime":"2024-04-02T09:00:00:Z","depth":0,"parameterNumber":3,"parameterNumberName":"V-component_of_WINDS"},"data":[0,0,0,0,0,0,0,0,0,0,0,0,0,0,0,0,0,0,0,0,0,0,0,0,0,0,0,0,0,0,0,0,0,0,0,0,0,0,0,0,0,0,0,0,0,0,0,0,0,0,0,0,0,0,0,0,0,0,2.8627,2.8628,0,2.8743,2.8745,2.8746,2.8811,2.8812,2.8812,2.8812,2.8929,2.8932,2.8935,0,0,0,0,0,0,0,0,0,0,0,0,0,2.8461,2.8464,2.8627,2.8628,2.863,2.8743,2.8745,2.8746,2.8811,2.8812,2.8812,2.8812,2.8928,2.8932,2.8935,0,0,0,0,0,0,0,0,0,0,0,0,0,2.8551,2.8465,2.8627,2.8676,2.8682,2.8743,2.8745,2.8747,2.8811,2.8812,2.8812,2.8812,2.8927,2.8932,2.8936,2.8956,0,0,2.8949,2.8951,0,0,0,0,0,0,0,0,2.8545,2.8557,2.8667,2.8673,2.8679,2.8763,2.8729,2.8817,2.8811,2.8762,2.8812,2.8812,2.8874,2.8883,2.8904,2.8962,2.8967,2.895,2.8952,2.8954,2.8955,0,0,0,0,0,0,0,2.8539,2.8552,2.8673,2.8669,2.8676,2.8692,2.8705,2.8746,2.8815,2.8766,2.8771,2.8784,2.8877,2.8899,2.8907,2.8969,2.895,2.8953,2.8956,2.8958,2.9052,2.9052,0,0,0,0,0,0,2.8525,2.8546,2.8669,2.8677,2.8612,2.8695,2.871,2.8736,2.8814,2.8827,2.8784,2.8787,2.8892,2.8902,2.8911,2.8942,2.8954,2.8958,2.8961,2.9052,2.9052,2.9052,0,0,0,0,0,0,2.8521,2.8536,2.8665,2.8613,2.8631,2.8698,2.8726,2.8738,2.876,2.8828,2.884,2.8794,2.8892,2.8905,2.8945,2.8947,2.896,2.8964,2.9052,2.9052,2.9052,2.9003,0,0,0,0,0,0,2.8516,2.8534,2.8542,2.8613,2.8633,2.8697,2.8727,2.874,2.8768,2.8773,2.8841,2.8852,2.8893,2.8938,2.895,2.8953,2.8968,2.9052,2.9052,2.9052,2.9005,2.9001,2.8998,0,0,0,0,0,2.851,2.8523,2.8542,2.8557,2.8645,2.8697,2.8708,2.8756,2.8768,2.8777,2.8821,2.885,2.8945,2.8942,2.8955,2.896,2.9052,2.9052,2.9052,2.9006,2.9002,2.8998,0,0,0,0,0,0,2.845,2.8533,2.8555,2.8591,2.8637,2.8708,2.8721,2.875,2.8792,2.8795,2.8852,2.8867,2.8902,2.8935,2.893,2.8985,2.9002,2.9004,2.8963,2.8959,2.8956,2.8947,2.8971,0,0,0,0,0,2.8441,2.8476,2.8547,2.8571,2.8593,2.8653,2.8677,2.871,2.8759,2.8778,2.8825,2.8871,2.8912,2.8937,2.8978,2.901,2.9026,2.902,2.9016,2.9013,2.9015,2.9036,2.9034,2.9051,2.9051,2.9051,0,0,2.8422,2.8472,2.8491,2.8561,2.86,2.8635,2.8668,2.8704,2.8731,2.8784,2.8825,2.8861,2.8916,2.8953,2.8971,2.8981,2.9014,2.9013,2.901,2.9013,2.9035,2.9034,2.9032,2.9051,2.9051,2.9051,0,0,2.8407,2.8447,2.8474,2.8513,2.8572,2.8612,2.8618,2.8685,2.8711,2.8754,2.8795,2.8828,2.8896,2.8934,2.8962,2.8964,2.8993,2.8975,2.8958,2.8978,2.8976,2.8976,2.8977,2.8977,2.8976,2.8976,2.8976,0,2.8376,2.8432,2.8483,2.8518,2.8548,2.8598,2.8626,2.866,2.8729,2.8749,2.876,2.8848,2.8888,2.8935,2.8936,2.8957,2.8966,2.8968,2.8973,2.8972,2.8972,2.8975,2.8975,2.8974,2.8974,2.8974,2.8975,0,2.8392,2.843,2.8444,2.8511,2.8543,2.8573,2.8629,2.8655,2.8686,2.8725,2.8768,2.8819,2.8872,2.8885,2.8915,2.8937,2.8942,2.8962,2.898,2.8967,2.8971,2.8972,2.897,2.8971,2.8972,2.8973,0,0,2.8341,2.8438,2.8442,2.8474,2.8544,2.8574,2.8607,2.866,2.8682,2.8727,2.8757,2.8815,2.8834,2.8866,2.8901,2.8918,2.8918,2.8936,2.8938,2.8932,2.8947,2.8933,2.8933,2.8937,2.8937,2.8938,2.8943,0,2.8337,2.84,2.8448,2.8492,2.8529,2.8578,2.8607,2.8653,2.869,2.8727,2.8768,2.8808,2.883,2.885,2.8869,2.8913,2.8922,2.8914,2.8966,2.8967,2.8952,2.8934,2.8919,2.8921,2.8944,2.8945,2.8945,0,2.8341,2.8387,2.8435,2.8503,2.852,2.8545,2.8598,2.8632,2.8686,2.8712,2.8748,2.8785,2.8822,2.8836,2.889,2.8883,2.8908,2.8933,2.8934,2.8941,2.8956,2.8942,2.8923,2.8924,2.8947,2.8947,2.8947,0,2.8301,2.8374,2.8414,2.8439,2.8518,2.8535,2.8569,2.8623,2.8652,2.8699,2.8719,2.8768,2.8795,2.8833,2.8882,2.8887,2.893,2.8948,2.8954,2.8953,2.8961,2.896,2.8947,2.8975,2.8975,2.8975,2.8975,0,2.8292,2.832,2.8397,2.8421,2.8454,2.851,2.8541,2.8579,2.8627,2.8659,2.8704,2.8733,2.8796,2.8833,2.8871,2.8911,2.8922,2.8945,2.8955,2.8941,2.8939,2.8959,2.896,2.8975,2.8975,2.8975,2.8975,0,2.8253,2.8306,2.8352,2.8424,2.8443,2.8464,2.8526,2.8551,2.8592,2.8633,2.8645,2.8708,2.8755,2.8807,2.887,2.8896,2.8933,2.8947,2.8915,2.8921,2.8924,2.8924,2.8924,2.8928,2.8952,2.8951,2.8951,0,2.8244,2.8267,2.8342,2.8368,2.8401,2.8441,2.8472,2.8527,2.8557,2.8621,2.8639,2.8689,2.8732,2.8803,2.8855,2.8904,2.892,2.8917,2.8927,2.8914,2.8922,2.892,2.8923,2.8914,2.8913,2.8913,2.8912,0,2.8223,2.8249,2.8292,2.8344,2.838,2.8423,2.8468,2.8487,2.8551,2.8583,2.8631,2.8665,2.873,2.878,2.8835,2.887,2.8902,2.8909,2.8913,2.89,2.8881,2.8893,2.8908,2.8908,2.8909,2.8909,2.8909,2.8909,2.8201,2.8224,2.8281,2.8328,2.8368,2.841,2.8438,2.8483,2.8524,2.8583,2.8613,2.8661,2.8715,2.8794,2.8828,2.8866,2.8877,2.8882,2.8884,2.8885,2.8882,2.8874,2.8877,2.8877,2.8877,2.8877,2.8877,0,2.8184,2.8223,2.8266,2.8329,2.8365,2.8393,2.8445,2.8474,2.8516,2.8565,2.8607,2.8663,2.8712,2.8767,2.8819,2.884,2.8856,2.8852,2.8851,2.8859,2.8869,2.8861,2.8838,2.8838,2.8838,2.8838,2.8838,2.8838,2.8179,2.8221,2.8253,2.8316,2.8356,2.8404,2.8432,2.8471,2.851,2.8571,2.8612,2.8648,2.87,2.8757,2.8803,2.8818,2.8835,2.8827,2.8847,2.8855,2.8858,2.8861,2.8854,2.883,2.883,2.8834,2.8834,2.8834]}]]